Location: Peterborough
(44.3091°N, 78.3197°W)
Time: 19:18:21
(UTC-04:00)

A-11 Canister half - Pass Details

Date: 22 March 2023
Orbit: 1526 x 1682 km, 47.3° (Epoch: 06 June)

Event Time Altitude Azimuth Distance (km) Brightness Sun altitude
Rises 00:09:33 0° 293° (WNW) 4,823 12.1 -42.5°
Reaches altitude 10° 00:12:44 10° 291° (WNW) 3,814 11.4 -42.7°
Enters shadow 00:18:22 39° 275° (W) 2,221 9.8 -43.1°
